This is the latest recevied weather packets stored in our database for station/object NC4J. If no packets are shown the sender has not sent any weather packets the latest 10 day(s).
| Time | Temp. | Humidity | Pressure | Rain* | Wind** | Luminosity | Snow |
|---|---|---|---|---|---|---|---|
| 1777761742 | 13.33° C | 38% | 1013.6 hPa | 0 mm | - | 42 W/m² | - |
| 1777761440 | 13.89° C | 34% | 1013.8 hPa | 0 mm | - | 38 W/m² | - |
| 1777761138 | 13.89° C | 34% | 1013.7 hPa | 0 mm | - | 45 W/m² | - |
| 1777760835 | 13.89° C | 34% | 1013.6 hPa | 0 mm | - | 89 W/m² | - |
| 1777760532 | 13.89° C | 33% | 1013.4 hPa | 0 mm | - | 65 W/m² | - |
| 1777760228 | 13.89° C | 35% | 1013.7 hPa | 0 mm | - | 55 W/m² | - |
| 1777759925 | 15° C | 33% | 1013.4 hPa | 0 mm | - | 123 W/m² | - |
| 1777759620 | 14.44° C | 35% | 1013.4 hPa | 0 mm | - | 111 W/m² | - |
| 1777759317 | 14.44° C | 33% | 1013.3 hPa | 0 mm | - | 78 W/m² | - |
| 1777759014 | 15° C | 33% | 1012.9 hPa | 0 mm | - | 115 W/m² | - |
| 1777758711 | 15.56° C | 33% | 1013.1 hPa | 0 mm | - | 119 W/m² | - |
| 1777758408 | 15° C | 33% | 1012.9 hPa | 0 mm | - | 242 W/m² | - |
| 1777758106 | 14.44° C | 35% | 1012.8 hPa | 0 mm | - | 350 W/m² | - |
| 1777757803 | 13.89° C | 35% | 1012.8 hPa | 0 mm | - | 126 W/m² | - |
| 1777757500 | 13.33° C | 35% | 1012.6 hPa | 0 mm | - | 54 W/m² | - |
| 1777757199 | 13.33° C | 36% | 1012.8 hPa | 0 mm | - | 35 W/m² | - |
| 1777756897 | 13.89° C | 36% | 1012.9 hPa | 0 mm | - | 39 W/m² | - |
| 1777756592 | 13.89° C | 33% | 1012.8 hPa | 0 mm | - | 35 W/m² | - |
| 1777756289 | 14.44° C | 32% | 1012.6 hPa | 0 mm | - | 41 W/m² | - |
| 1777755987 | 14.44° C | 39% | 1012.8 hPa | 0 mm | - | 62 W/m² | - |
| 1777755684 | 14.44° C | 32% | 1012.5 hPa | 0 mm | - | 46 W/m² | - |
| 1777755380 | 15° C | 33% | 1012.5 hPa | 0 mm | - | 47 W/m² | - |
| 1777755077 | 15° C | 32% | 1012.5 hPa | 0 mm | - | 59 W/m² | - |
| 1777754774 | 15° C | 33% | 1012.8 hPa | 0 mm | - | 127 W/m² | - |
| 1777754471 | 15.56° C | 32% | 1012.8 hPa | 0 mm | - | 77 W/m² | - |
* Rain latest hour (hover to see other rain measurements)
** Current wind speed in m/s (hover to see current wind gust speed)